Flag for France Weather past 2 weeks in Le Havre, France

Now
61 °F

Partly sunny.


Feels Like: 61 °F
Forecast: 58 / 64 °F
Wind: 14 mph from West

Location: La Heve

Current Time: Aug 22, 2014 at 8:19:00 PM

Latest Report: Aug 22, 2014 at 8:00 PM


Visibility: N/A

Pressure: 29.95 "Hg

Humidity: 68%

Dew point: 50 °F

Location of Le HavreLocation

Historic Weather in Le Havre — Graph

°F

Le Havre temperature yesterday

Maximum temperature yesterday: 63 °F (at 2:00 PM)
Minimum temperature yesterday: 55 °F (at 5:30 AM)
Average temperature yesterday: 59 °F

Past Weeks' High & Low Weather Summary

 TemperatureHumidityPressure
High72 °F (Aug 9, 5:30 PM)100% (Aug 8, 5:30 AM)30.21 "Hg (Aug 8, 5:30 AM)
Low52 °F (Aug 20, 5:30 AM)53% (Aug 9, 2:00 PM)29.47 "Hg (Aug 10, 12:30 PM)
Average61 °F76%29.91 "Hg
* Reported Aug 7 7:00 PM — Aug 22 7:00 PM, Le Havre, Weather by CustomWeather, © 2014

Note: Actual official high and low records may vary slightly from our data, if they occured in-between our weather recording intervals... More about our weather records

Advertising

Le Havre weather history for previous 24 hours

 ConditionsComfort  
Time TempWeatherWind HumidityBarometerVisibility
7:00 PM
Aug 22
63 °FBroken clouds.14 mph64%29.95 "HgN/A
6:30 PM59 °FMostly cloudy.12 mph88%29.95 "HgN/A
6:00 PM61 °FLight rain. Broken clouds.10 mph68%29.95 "HgN/A
5:30 PM61 °FMostly cloudy.13 mph72%29.95 "HgN/A
5:00 PM63 °FPartly sunny.14 mph68%29.95 "HgN/A
4:30 PM61 °FMostly cloudy.12 mph77%29.95 "HgN/A
4:00 PM61 °FPartly sunny.13 mph77%29.95 "HgN/A
3:30 PM63 °FPartly sunny.15 mph77%29.95 "HgN/A
3:00 PM61 °FBroken clouds.16 mph83%29.95 "Hg4 mi
2:30 PM61 °FMostly cloudy.15 mph77%29.95 "HgN/A
2:00 PM61 °FBroken clouds.15 mph77%29.92 "HgN/A
1:30 PM63 °FBroken clouds.17 mph77%29.92 "HgN/A
1:00 PM61 °FPartly sunny.16 mph88%29.92 "HgN/A
12:30 PM59 °FMostly cloudy.17 mph88%29.92 "HgN/A
12:00 PM59 °FOvercast.17 mph82%29.92 "HgN/A
11:30 AM59 °FMostly cloudy.17 mph82%29.92 "HgN/A
11:00 AM59 °FPartly sunny.16 mph82%29.92 "HgN/A
10:30 AM57 °FMostly cloudy.16 mph88%29.92 "HgN/A
10:00 AM57 °FPartly sunny.14 mph82%29.92 "HgN/A
9:30 AM57 °FMostly cloudy.16 mph88%29.92 "HgN/A
9:00 AM57 °FLight rain. Partly sunny.16 mph82%29.92 "HgN/A
8:30 AM57 °FBroken clouds.14 mph82%29.92 "HgN/A
8:00 AM57 °FMostly cloudy.12 mph82%29.92 "HgN/A
7:30 AM57 °FMostly cloudy.12 mph82%29.92 "HgN/A
7:00 AM57 °FMostly cloudy.12 mph82%29.92 "HgN/A
6:30 AM57 °FMostly cloudy.13 mph72%29.92 "HgN/A
6:00 AM57 °FOvercast.15 mph82%29.92 "HgN/A
5:30 AM57 °FClear.12 mph77%29.92 "HgN/A
5:00 AM57 °FClear.10 mph77%29.92 "HgN/A
4:30 AM57 °FClear.10 mph77%29.95 "HgN/A
4:00 AM57 °FMostly cloudy.10 mph77%29.95 "HgN/A
3:30 AM57 °FOvercast.14 mph72%29.95 "HgN/A
3:00 AM57 °FClear.13 mph72%29.95 "HgN/A
2:30 AM57 °FPassing clouds.15 mph67%29.98 "HgN/A
2:00 AM59 °FClear.14 mph63%29.98 "HgN/A
1:30 AM59 °FClear.15 mph63%29.98 "HgN/A
1:00 AM59 °FOvercast.15 mph68%29.98 "HgN/A
12:30 AM59 °FOvercast.14 mph72%29.98 "HgN/A
12:00 AM59 °FOvercast.13 mph68%29.98 "HgN/A
11:30 PM
Aug 21
61 °FMostly cloudy.12 mph68%29.98 "HgN/A
11:00 PM59 °FMostly cloudy.8 mph72%29.98 "HgN/A
10:30 PM59 °FClear.7 mph72%30.01 "HgN/A
10:00 PM59 °FClear.7 mph72%29.98 "HgN/A
9:30 PM59 °FClear.8 mph68%29.98 "HgN/A
9:00 PM61 °FClear.8 mph63%29.98 "HgN/A
8:30 PM63 °FPartly sunny.9 mph56%29.98 "HgN/A
8:00 PM63 °FClear.7 mph59%29.98 "HgN/A
Weather by CustomWeather, © 2014

See weather overviewHow to use our weather pages